RYR214Y EVRA-EIDW

Flight info

Callsign RYR214Y
Flight time N/A
Altitude 36000
Route VALED DCT VEDEN DCT ERNOV DCT LESRA DCT ROPAL DCT ERDOW DCT GOLES UL975 DESIG UL70 GUNTU Z196 LELDO M145 BAGSO BAGSO4L
Aircraft B738/M-SDE2E3FGHIRWXY/LB1

Departure

Time 2026-05-06 17:16
Airport Riga International Airport (EVRA)

Arrival

Time N/A
Airport Dublin Airport (EIDW)
Time Latitude Longitude Altitude Speed Heading
2026-05-06 16:53 56.92546 23.97797 42 ft 0 kts 185°
2026-05-06 17:01 56.92560 23.97799 43 ft 4 kts 185°
2026-05-06 17:02 56.92583 23.97805 42 ft 4 kts 210°
2026-05-06 17:02 56.92596 23.97837 39 ft 4 kts 269°
2026-05-06 17:02 56.92595 23.97868 38 ft 1 kts 275°
2026-05-06 17:02 56.92595 23.97872 39 ft 0 kts 275°
2026-05-06 17:10 56.92598 23.97809 41 ft 16 kts 277°
2026-05-06 17:10 56.92609 23.97622 43 ft 8 kts 276°
2026-05-06 17:10 56.92612 23.97562 43 ft 0 kts 277°
2026-05-06 17:11 56.92615 23.97559 41 ft 3 kts 309°
2026-05-06 17:11 56.92700 23.97562 43 ft 18 kts
2026-05-06 17:11 56.92839 23.97585 43 ft 22 kts
2026-05-06 17:11 56.92992 23.97612 43 ft 25 kts
2026-05-06 17:12 56.93379 23.97665 43 ft 1 kts 358°
2026-05-06 17:12 56.93380 23.97665 40 ft 2 kts 356°
2026-05-06 17:13 56.93411 23.97639 43 ft 7 kts 311°
2026-05-06 17:13 56.93433 23.97595 43 ft 0 kts 316°
2026-05-06 17:14 56.93434 23.97593 43 ft 4 kts 317°
2026-05-06 17:14 56.93463 23.97545 43 ft 16 kts 315°
2026-05-06 17:14 56.93470 23.97528 43 ft 16 kts 304°
2026-05-06 17:15 56.93476 23.97499 43 ft 16 kts 277°
2026-05-06 17:15 56.93481 23.97434 43 ft 13 kts 280°
2026-05-06 17:15 56.93449 23.97314 42 ft 9 kts 208°
2026-05-06 17:15 56.93390 23.97283 43 ft 11 kts 185°
2026-05-06 17:16 56.93166 23.97247 43 ft 65 kts 185°
2026-05-06 17:16 56.92485 23.97135 44 ft 130 kts 185°
2026-05-06 17:16 56.91407 23.96942 122 ft 175 kts 184°
2026-05-06 17:16 56.90210 23.96764 1003 ft 163 kts 180°
2026-05-06 17:17 56.89102 23.96135 1511 ft 192 kts 218°
2026-05-06 17:17 56.88408 23.93880 1840 ft 219 kts 259°
2026-05-06 17:17 56.88150 23.91080 2341 ft 227 kts 262°
2026-05-06 17:17 56.87902 23.88200 2848 ft 235 kts 262°
2026-05-06 17:18 56.87631 23.85133 3166 ft 251 kts 261°
2026-05-06 17:18 56.87327 23.81846 3417 ft 272 kts 261°
2026-05-06 17:18 56.86994 23.78406 4131 ft 276 kts 260°
2026-05-06 17:18 56.86648 23.74957 5032 ft 276 kts 259°
2026-05-06 17:19 56.86292 23.71510 5900 ft 276 kts 259°
2026-05-06 17:19 56.85927 23.68047 6689 ft 278 kts 257°
2026-05-06 17:19 56.85562 23.64632 7674 ft 270 kts 257°
2026-05-06 17:19 56.85200 23.61270 8530 ft 270 kts 256°
2026-05-06 17:20 56.84835 23.57917 9348 ft 270 kts 255°
2026-05-06 17:20 56.84465 23.54538 9764 ft 274 kts 255°
2026-05-06 17:20 56.84087 23.51114 10362 ft 280 kts 255°
2026-05-06 17:20 56.83682 23.47485 10516 ft 303 kts 255°
2026-05-06 17:21 56.83249 23.43611 10837 ft 317 kts 255°
2026-05-06 17:21 56.82808 23.39639 11670 ft 319 kts 256°
2026-05-06 17:21 56.82384 23.35774 13213 ft 302 kts 256°
2026-05-06 17:21 56.81980 23.32108 14647 ft 288 kts 256°
2026-05-06 17:22 56.81597 23.28653 15879 ft 276 kts 256°
2026-05-06 17:22 56.81217 23.25256 16909 ft 273 kts 255°
2026-05-06 17:22 56.80829 23.21838 17630 ft 278 kts 255°
2026-05-06 17:22 56.80432 23.18351 18327 ft 283 kts 255°
2026-05-06 17:23 56.80030 23.14822 18997 ft 284 kts 255°
2026-05-06 17:23 56.79626 23.11287 19669 ft 286 kts 255°
2026-05-06 17:23 56.79216 23.07715 20300 ft 289 kts 254°
2026-05-06 17:23 56.78803 23.04117 20940 ft 291 kts 254°
2026-05-06 17:24 56.78385 23.00492 21551 ft 293 kts 254°
2026-05-06 17:24 56.77963 22.96837 22173 ft 296 kts 253°